Powrót do katalogu

DMSP 5D-2 F13 DEB

AktywnySSO
NORAD 40413·DEBRIS·🇺🇸 United States

Wystrzelony Mar 24, 1995 z Vandenberg Space Force Base

Loading…

Następne Przeloty (najbliższe 24 godziny)

TLE

ŚwieżeSource: Space-Track

Epoka: Sep 14, 2026, 13:17 UTC

1 40413U 95015AA  26257.55412931  .00001438  00000-0  53756-3 0  9999
2 40413  98.6131 285.9849 0013071  28.4735 331.7160 14.33318349600150

Śledź DMSP 5D-2 F13 DEB w czasie rzeczywistym z AllMySat

Download on the App Store